This demonstration page uses our WeatherBlox Daily Observations layout. Learn more.

Left ArrowRight Arrow

Hourly Observations for June 25, 2021

Temp ( °F °C ) Dew Point ( °F °C ) Humidity (%) Winds ( mph kmh ) Pressure ( in mb ) Visibility ( mi km ) Precip ( " mm )
12:15 am 00:15 Clear 68 20 66 19.1 95 95 N 3 6 29.84 1010 7 11 N/A
12:35 am 00:35 Clear with Mist and Fog 67 19.4 66 18.7 96 96 N 6 9 29.82 1010 5 8 N/A
12:55 am 00:55 Clear 68 19.8 66 18.8 94 94 NNW 7 11 29.82 1010 7 11 N/A
1:15 am 01:15 Clear with Mist and Fog 67 19.5 65 18.6 95 95 NW 5 7 29.82 1010 5 8 N/A
1:35 am 01:35 Clear with Mist and Fog 67 19.5 65 18.6 95 95 N N/A 29.82 1010 5 8 N/A
1:55 am 01:55 Clear with Mist and Fog 67 19.7 66 18.8 95 95 N N/A 29.83 1010 5 8 N/A
2:15 am 02:15 Clear with Mist and Fog 67 19.2 65 18.5 96 96 N N/A 29.83 1010 4 6 N/A
2:35 am 02:35 Clear with Mist and Fog 67 19.5 65 18.5 94 94 N N/A 29.84 1011 5 8 N/A
2:55 am 02:55 Clear with Mist and Fog 66 19 65 18.1 95 95 N N/A 29.84 1010 4 6 N/A
3:15 am 03:15 Clear with Mist and Fog 67 19.3 65 18.6 96 96 ENE 5 7 29.83 1010 4 6 N/A
3:35 am 03:35 Clear with Mist and Fog 67 19.3 65 18.6 96 96 ENE 7 11 29.82 1010 4 6 N/A
3:55 am 03:55 Clear with Mist and Fog 67 19.6 66 18.7 95 95 E 7 11 29.82 1010 4 6 N/A
4:15 am 04:15 Clear with Mist and Fog 67 19.5 65 18.6 95 95 ENE 6 9 29.81 1010 4 6 N/A
4:35 am 04:35 Clear with Mist and Fog 67 19.5 65 18.6 95 95 N N/A 29.82 1010 5 8 N/A
4:55 am 04:55 Clear with Mist and Fog 67 19.4 65 18.5 95 95 N N/A 29.82 1010 4 6 N/A
5:15 am 05:15 Clear with Mist and Fog 66 19.1 65 18.3 95 95 N N/A 29.82 1010 3 5 N/A
5:35 am 05:35 Clear with Mist and Fog 66 19 65 18.4 96 96 N N/A 29.82 1010 3 5 N/A
5:55 am 05:55 Clear with Mist and Fog 66 19.1 65 18.4 96 96 N N/A 29.80 1009 4 6 N/A
6:15 am 06:15 Sunny with Mist and Fog 65 18.5 64 17.8 96 96 N N/A 29.81 1009 2 3 N/A
6:35 am 06:35 Mostly Cloudy with Mist and Fog 64 17.6 63 17 96 96 NNE 3 6 29.80 1009 1 2 N/A
6:55 am 06:55 Mostly Cloudy with Mist and Fog 65 18.3 64 17.9 98 98 N N/A 29.80 1009 1 2 N/A
7:15 am 07:15 Sunny with Mist and Fog 66 19.1 66 18.8 98 98 NNW 3 6 29.79 1009 2 3 N/A
7:35 am 07:35 Sunny with Mist and Fog 68 20 66 19 94 94 NNE 3 6 29.79 1009 3 5 N/A
7:55 am 07:55 Sunny with Mist and Fog 68 20 66 19.1 95 95 N N/A 29.79 1009 3 5 N/A
8:15 am 08:15 Sunny with Mist and Fog 68 20.2 66 19.1 93 93 NNE 5 7 29.80 1009 3 5 N/A
8:35 am 08:35 Sunny with Mist and Fog 69 20.3 67 19.3 94 94 N 7 11 29.80 1009 3 4 N/A
8:55 am 08:55 Sunny with Mist and Fog 69 20.5 67 19.4 93 93 N 6 9 29.80 1009 3 5 N/A
9:15 am 09:15 Partly Cloudy with Mist and Fog 69 20.7 67 19.5 93 93 N 6 9 29.81 1010 4 6 N/A
9:35 am 09:35 Sunny with Mist and Fog 71 21.5 68 19.8 90 90 NNW 5 7 29.81 1009 4 6 N/A
9:55 am 09:55 Sunny with Mist and Fog 72 22.3 68 20.2 88 88 N 7 11 29.79 1009 5 8 N/A
10:15 am 10:15 Sunny 74 23.1 67 19.7 81 81 NNE 7 11 29.78 1009 7 11 N/A
10:35 am 10:35 Sunny 75 23.9 68 19.9 78 78 NNE 6 9 29.78 1008 10 16 N/A
10:55 am 10:55 Sunny 76 24.2 68 20.1 78 78 N 6 9 29.77 1008 10 16 N/A
11:15 am 11:15 Partly Cloudy 76 24.7 68 19.8 74 74 ENE 7 11 29.77 1008 10 16 N/A
11:35 am 11:35 Partly Cloudy 78 25.7 68 19.8 70 70 E 7 11 29.76 1008 10 16 N/A
11:55 am 11:55 Partly Cloudy 79 26.2 67 19.3 66 66 E 8 13 29.76 1008 10 16 N/A
12:15 pm 12:15 Partly Cloudy 79 26.1 67 19.7 68 68 E 7 11 29.76 1008 10 16 N/A
12:35 pm 12:35 Mostly Cloudy 81 27.1 67 19.4 63 63 E 6 9 29.74 1007 10 16 N/A
12:55 pm 12:55 Mostly Cloudy 79 26.1 66 18.8 64 64 ENE 9 15 29.75 1007 10 16 N/A
1:15 pm 13:15 Mostly Cloudy 79 26.3 66 18.9 64 64 ENE 8 13 29.74 1007 10 16 N/A
1:35 pm 13:35 Partly Cloudy 80 26.6 65 18.4 61 61 ENE 5 7 29.73 1007 10 16 N/A
1:55 pm 13:55 Mostly Cloudy 82 27.6 64 17.9 56 56 ENE 6 9 29.73 1007 10 16 N/A
2:15 pm 14:15 Mostly Cloudy 80 26.6 64 17.8 59 59 ENE 3 6 29.71 1006 10 16 N/A
2:35 pm 14:35 Mostly Cloudy with Light Rain 80 26.4 66 19.1 64 64 E 9 15 29.71 1006 10 16 N/A
2:55 pm 14:55 Partly Cloudy 81 27.3 66 19 61 61 E 9 15 29.68 1005 10 16 N/A
3:15 pm 15:15 Sunny 82 27.7 65 18.5 57 57 ESE 7 11 29.67 1005 10 16 N/A
3:35 pm 15:35 Partly Cloudy 82 27.8 65 18.6 57 57 ESE 7 11 29.67 1005 10 16 N/A
3:55 pm 15:55 Partly Cloudy 83 28.3 65 18.5 55 55 E 6 9 29.66 1004 10 16 N/A
4:15 pm 16:15 Partly Cloudy 83 28.3 64 17.6 52 52 N N/A 29.66 1004 10 16 N/A
4:35 pm 16:35 Partly Cloudy 82 28 64 17.7 54 54 NNW 3 6 29.65 1004 10 16 N/A
4:55 pm 16:55 Mostly Cloudy 81 27.2 64 18 57 57 NNE 5 7 29.65 1004 10 16 N/A
5:15 pm 17:15 Partly Cloudy 81 27.2 65 18.2 58 58 N 3 6 29.65 1004 10 16 N/A
5:35 pm 17:35 Sunny 82 27.7 65 18.5 57 57 NE 5 7 29.64 1004 10 16 N/A
5:55 pm 17:55 Sunny 83 28.6 65 18.2 53 53 N 5 7 29.63 1003 10 16 N/A
6:15 pm 18:15 Sunny 82 27.6 63 17.4 54 54 N N/A 29.63 1003 10 16 N/A
6:35 pm 18:35 Mostly Cloudy 73 22.7 64 17.7 73 73 N 10 17 29.70 1006 10 16 N/A
6:55 pm 18:55 Partly Cloudy 72 22 64 17.8 77 77 N 13 20 29.71 1006 10 16 N/A
7:15 pm 19:15 Mostly Cloudy with Light Rain 73 22.6 66 19.1 81 81 N 10 17 29.70 1006 10 16 N/A
7:35 pm 19:35 Partly Cloudy 73 22.8 66 18.8 78 78 NNW 9 15 29.71 1006 10 16 N/A
7:55 pm 19:55 Sunny 71 21.9 65 18.1 79 79 N 12 19 29.71 1006 10 16 N/A
8:15 pm 20:15 Sunny 71 21.4 65 18.1 82 82 N 10 17 29.73 1007 10 16 N/A
8:35 pm 20:35 Partly Cloudy 70 21 65 18.1 84 84 N 7 11 29.74 1007 10 16 N/A
8:55 pm 20:55 Mostly Cloudy 70 20.9 64 17.8 83 83 N 7 11 29.75 1007 10 16 N/A
9:15 pm 21:15 Partly Cloudy 69 20.6 64 17.6 83 83 N 10 17 29.75 1008 10 16 N/A
9:35 pm 21:35 Mostly Cloudy 69 20.5 63 17.2 81 81 N 9 15 29.76 1008 10 16 N/A
9:55 pm 21:55 Mostly Cloudy 68 20 63 17 83 83 N 9 15 29.77 1008 10 16 N/A
10:15 pm 22:15 Partly Cloudy 67 19.3 62 16.7 85 85 N 7 11 29.76 1008 10 16 N/A
10:35 pm 22:35 Clear 66 18.8 62 16.7 88 88 N 7 11 29.79 1009 10 16 N/A
10:55 pm 22:55 Clear 65 18.6 62 16.7 89 89 N 10 17 29.78 1008 10 16 N/A
11:15 pm 23:15 Clear 65 18.5 62 16.5 88 88 N 8 13 29.79 1009 10 16 N/A
11:35 pm 23:35 Clear 65 18.5 61 16.3 87 87 NNW 9 15 29.80 1009 10 16 N/A
11:55 pm 23:55 Clear 65 18.1 61 16.2 89 89 NNW 7 11 29.79 1009 10 16 N/A

Powered by AerisWeather